Theta_e
339 337 333 332 331 331 331 331 331 329 328 326 326 326 325 323 325 325 325 325 326 326 326 325 326 326 325 325 324 324 325 326 323 325 327 328 326 328 327 327 328 330 331
335 334 333 332 331 331 331 328 328 327 324 325 325 325 325 325 325 326 326 326 326 326 326 324 326 325 325 325 324 325 325 325 326 327 326 327 327 329 328 329 330 331 330
333 332 331 331 329 326 328 328 327 326 325 325 326 326 326 327 327 326 326 325 325 325 326 324 324 324 326 326 326 325 326 325 325 325 325 326 326 327 327 329 330 329 330
332 330 326 324 327 329 329 329 327 327 325 326 327 327 327 327 326 326 326 328 328 326 327 326 324 324 325 325 324 325 326 326 325 326 327 327 326 327 328 329 326 326 323
326 323 326 328 329 330 330 328 327 327 327 328 327 328 328 328 326 326 326 326 327 327 326 326 327 326 325 325 324 325 326 325 326 325 326 326 328 326 326 326 325 325 323
323 327 328 329 330 330 329 328 326 327 327 327 327 327 327 324 324 325 326 327 328 328 327 327 326 327 325 325 326 325 325 324 326 325 326 325 325 326 326 325 325 323 320
326 328 328 329 330 329 329 328 326 327 327 326 326 328 325 326 325 324 327 329 329 329 328 326 327 327 327 327 326 326 325 325 324 324 325 325 323 324 325 325 324 322 321
330 328 328 329 329 328 326 326 326 326 326 327 328 326 325 327 329 329 329 329 328 328 327 327 326 325 325 325 326 326 326 325 325 325 326 325 324 324 323 323 322 322 321
331 329 329 329 329 328 326 326 326 325 326 328 327 325 328 328 329 329 329 328 328 327 327 327 327 326 326 327 326 326 326 326 324 324 324 324 324 324 323 322 321 321 321
332 331 329 328 329 328 328 327 327 326 326 328 327 325 328 328 328 329 328 329 328 326 327 327 327 327 326 326 326 325 326 325 325 324 324 323 323 322 322 322 322 322 321
332 331 329 329 329 328 328 328 328 327 328 328 326 325 327 328 328 329 328 327 326 326 327 327 327 327 326 326 325 324 324 324 324 324 324 323 322 321 321 321 322 322 321
331 330 329 329 329 329 328 328 328 328 328 328 325 324 326 327 328 328 327 326 325 325 326 326 326 326 325 325 325 324 324 324 324 324 324 323 323 322 322 322 322 322 321
330 330 329 330 329 329 329 328 327 328 328 328 327 324 324 326 328 326 326 325 324 325 326 325 324 324 324 324 325 325 324 325 325 324 323 323 323 322 322 322 322 321 320
329 330 329 330 329 330 329 328 328 328 328 327 328 326 324 325 327 325 325 325 324 325 325 323 323 323 323 323 324 323 324 324 324 324 323 323 322 322 323 322 322 320 318
329 330 330 330 329 330 329 328 328 328 328 327 327 328 327 324 326 325 325 325 324 326 325 324 323 323 322 321 322 322 323 323 322 323 323 323 323 322 322 322 321 320 318
328 329 330 330 329 330 329 328 328 328 327 326 327 327 327 326 326 325 325 324 324 325 325 324 323 323 322 321 322 322 322 322 323 322 322 322 323 323 322 322 320 318 317
328 329 330 330 330 329 329 328 328 329 329 327 327 327 326 326 326 325 325 324 325 325 325 324 323 322 322 322 323 323 322 322 322 323 323 323 322 322 321 317 314 315 317
328 328 329 330 331 329 329 330 330 329 329 330 328 328 326 325 326 325 325 324 324 325 325 325 324 323 322 323 323 322 324 323 323 323 323 323 322 323 320 321 320 320 321
327 327 327 328 331 331 328 329 330 330 331 329 330 328 326 325 326 325 325 325 324 324 324 324 324 324 323 322 323 323 323 323 324 323 324 323 323 322 321 323 323 323 323
326 326 326 327 330 331 330 328 329 329 329 328 328 327 326 325 326 325 324 324 324 324 324 323 324 324 324 324 323 324 323 323 323 323 323 323 322 320 321 321 322 324 323
325 325 325 326 328 330 330 329 328 327 328 327 328 326 325 325 326 326 325 325 324 325 324 324 324 324 323 324 325 324 324 323 324 324 324 323 323 323 322 324 325 325 325
326 324 325 325 325 327 330 330 329 327 328 327 326 326 327 326 325 325 325 326 326 325 324 324 324 323 322 323 324 324 325 325 325 324 324 324 324 323 324 325 325 326 325
326 326 326 326 325 325 327 330 329 328 328 327 327 325 325 325 325 324 324 323 322 323 325 325 325 323 322 322 321 321 322 323 324 324 325 325 325 325 325 325 325 325 325
327 327 327 327 327 327 326 327 329 330 329 328 328 328 327 327 327 327 327 327 326 326 324 322 320 320 324 324 322 320 320 319 318 318 321 323 323 324 323 325 325 324 323
328 327 327 327 327 328 328 328 329 330 330 329 328 328 328 329 329 328 328 328 327 327 327 327 326 326 324 321 319 319 322 323 322 321 320 318 316 318 321 321 321 321 322
330 327 327 327 327 327 326 327 327 327 328 328 328 328 328 328 327 327 327 327 327 327 326 326 326 326 326 326 326 326 325 324 322 321 323 323 324 324 325 325 325 325 326
Wind_Speed
22 22 22 21 18 15 15 13 11 9 9 10 11 11 10 10 9 8 7 8 8 9 10 8 8 9 11 11 13 13 11 10 10 13 10 10 10 12 16 16 16 20 21
24 23 22 19 17 15 13 11 10 10 11 11 10 10 9 8 8 7 7 8 8 8 10 11 7 6 11 12 12 13 16 16 15 19 15 14 14 17 17 18 20 20 22
25 22 19 16 15 13 12 12 12 12 10 11 10 10 9 7 5 5 6 7 7 8 11 12 11 9 11 13 11 9 16 17 15 22 20 20 18 17 17 21 24 25 25
22 19 17 16 15 14 12 12 13 12 11 12 11 9 5 3 4 4 5 5 6 7 8 8 11 12 13 13 13 16 18 19 17 23 26 24 22 21 22 27 33 33 38
20 19 18 17 14 12 10 13 14 14 13 11 8 5 2 3 4 4 3 4 5 6 7 9 9 13 15 16 17 19 20 18 22 28 28 28 27 29 26 31 34 38 37
21 20 18 15 11 9 12 16 15 14 11 8 7 1 3 2 2 3 4 4 6 9 4 9 8 11 15 16 17 17 20 19 28 28 31 29 30 27 30 29 31 35 32
21 19 16 13 9 11 15 17 16 13 10 8 4 3 1 1 1 4 3 3 2 4 4 9 8 10 14 18 21 19 18 12 16 26 31 27 27 28 33 34 36 35 38
19 17 14 11 11 13 14 17 15 10 9 9 3 1 1 4 5 5 4 2 4 6 6 10 12 13 15 21 22 22 19 17 16 22 23 21 21 28 26 34 38 36 34
16 14 12 11 12 13 15 17 13 11 10 7 2 3 4 5 5 4 4 4 6 6 7 10 14 17 17 18 23 24 22 20 17 22 21 22 23 29 33 38 38 37 35
15 13 12 12 10 11 15 15 11 12 9 6 3 6 5 6 6 5 5 4 5 6 9 10 11 13 20 18 23 25 25 23 21 20 22 26 21 25 33 32 33 30 28
13 14 12 11 9 9 14 14 12 14 11 6 6 8 5 5 6 7 6 5 5 6 10 11 13 12 15 22 20 21 26 25 22 22 24 27 27 27 27 29 26 21 20
15 14 13 11 10 9 12 13 12 12 11 8 8 9 6 5 6 8 7 6 6 7 10 12 15 16 18 16 21 22 22 23 25 23 25 28 25 29 30 27 20 19 16
16 14 14 11 10 9 10 10 11 11 10 10 9 10 7 6 7 6 5 4 6 8 11 15 18 17 17 16 19 20 25 25 24 24 27 27 28 33 30 26 21 17 18
18 15 14 11 11 10 10 8 7 9 11 11 11 10 8 7 8 6 5 4 7 10 18 19 18 18 19 20 21 22 24 23 25 26 31 32 34 33 27 21 20 20 16
18 15 13 11 11 10 10 9 7 7 7 9 10 9 7 8 7 6 4 7 11 15 20 21 19 20 21 22 24 23 24 23 25 31 32 32 31 28 24 22 21 23 19
21 16 14 11 11 11 11 11 11 10 10 9 8 8 7 8 9 8 6 9 12 19 20 21 19 20 22 21 21 23 24 26 31 29 27 28 28 27 23 23 21 21 21
21 18 15 14 11 11 12 13 12 11 11 9 7 8 8 11 12 10 9 13 14 18 18 20 18 17 22 23 23 24 26 24 26 22 21 20 21 20 24 22 20 19 17
21 17 14 14 14 11 12 12 11 9 8 8 7 6 8 11 14 12 11 13 16 17 17 18 19 20 19 21 23 22 20 23 23 20 20 20 21 21 22 18 18 17 16
23 18 14 15 15 12 11 12 11 10 8 6 8 7 10 14 15 13 11 12 14 15 17 16 17 17 19 17 17 20 20 19 19 20 19 20 22 22 20 17 16 18 18
22 18 14 14 16 15 12 12 12 12 8 5 7 6 10 14 17 17 15 14 13 11 12 14 16 18 20 21 20 19 20 23 24 21 20 21 22 22 20 19 18 18 20
20 20 17 15 14 16 15 13 13 13 10 8 8 7 7 8 13 12 13 14 13 13 12 12 12 13 14 19 23 24 24 23 24 25 22 23 25 24 24 20 20 21 21
23 20 18 17 15 15 16 15 12 12 12 11 10 9 8 7 6 7 8 10 11 12 12 12 12 12 13 14 15 17 20 22 22 24 25 24 25 27 26 25 25 25 24
23 23 21 19 17 17 16 15 15 12 12 12 11 11 10 9 8 7 5 5 7 8 10 12 13 14 15 15 16 17 19 21 22 25 28 28 28 27 27 26 26 25 26
18 18 17 18 17 15 14 15 15 15 11 11 12 11 10 9 8 7 8 8 8 9 9 10 12 13 15 16 18 19 19 20 21 23 23 26 27 28 30 28 28 29 29
13 14 14 14 13 11 9 9 8 8 13 11 9 10 8 11 11 11 11 12 13 14 15 16 17 17 18 19 20 22 23 23 24 25 26 27 30 30 29 29 31 32 34
10 14 18 16 13 10 9 9 9 8 7 7 8 8 9 9 9 11 11 12 13 13 14 14 15 16 16 19 21 24 26 27 27 28 30 33 33 33 32 34 36 36 35
Wind_Direction
157 155 153 151 156 162 170 173 181 194 201 203 190 182 185 184 186 190 197 209 216 224 231 232 228 229 222 208 201 212 202 183 184 191 175 163 170 166 155 167 167 160 166
155 155 156 158 162 167 175 182 180 177 174 171 173 174 179 184 193 200 218 229 227 224 219 220 210 218 210 200 191 209 204 192 173 167 168 150 145 151 158 155 156 156 156
151 153 155 159 162 166 169 166 167 168 164 161 160 157 157 172 189 217 225 222 221 232 228 222 215 217 202 195 192 202 176 175 170 167 156 146 141 154 152 159 158 155 171
152 153 154 153 155 158 155 165 168 164 160 153 152 152 154 184 215 218 210 223 224 239 231 202 203 208 198 192 188 180 164 161 168 167 151 148 142 148 155 161 154 153 136
152 149 149 152 158 163 166 168 163 157 153 153 151 151 198 260 227 205 215 224 234 237 222 210 215 211 205 200 193 175 165 171 165 160 156 151 151 153 158 152 146 147 148
150 151 156 160 164 173 172 168 162 164 166 167 155 177 291 226 194 178 193 229 247 246 226 190 206 207 200 193 190 187 186 178 167 167 166 163 165 170 164 163 161 154 143
157 161 165 165 166 165 165 169 167 167 170 170 176 287 259 229 205 184 182 229 236 175 181 184 175 157 173 181 180 184 191 205 201 178 173 174 171 171 172 165 163 159 155
162 168 167 169 163 160 163 169 169 170 174 174 184 250 142 117 124 136 152 171 147 146 148 168 162 154 147 150 159 169 178 182 184 175 185 178 163 169 177 172 161 159 157
170 173 172 166 161 164 167 169 169 176 175 172 175 154 128 125 129 136 132 140 152 162 154 161 176 169 166 162 157 159 160 168 177 180 175 167 158 166 165 165 161 157 157
177 176 172 157 153 165 181 179 178 178 179 177 170 152 129 122 122 128 119 107 130 133 140 145 174 171 171 168 167 162 162 167 168 173 173 167 158 167 166 169 165 165 161
183 184 167 145 146 159 173 178 183 186 182 185 169 157 138 127 116 115 111 90 125 146 148 150 152 156 164 172 178 171 159 158 161 165 171 172 170 173 175 174 169 178 169
180 178 166 153 158 160 171 183 187 193 187 186 175 168 152 135 129 124 117 106 120 144 147 133 133 143 154 164 177 169 164 160 162 170 174 175 173 166 167 173 178 183 185
182 174 163 159 163 166 173 177 182 191 191 184 182 179 171 156 148 130 133 123 134 143 149 128 130 131 137 147 163 172 164 168 171 169 169 172 168 168 172 178 184 189 187
180 171 167 165 168 169 176 176 182 192 187 191 190 189 188 176 166 144 145 152 149 145 140 127 131 132 134 138 146 158 171 167 165 164 166 167 169 176 180 184 186 180 175
181 176 170 170 177 178 178 166 152 148 165 179 194 197 200 192 175 151 140 156 157 151 143 139 141 143 142 145 158 163 166 169 170 170 167 167 169 174 182 185 189 188 192
182 180 178 176 183 192 179 160 143 132 133 143 160 172 191 192 174 155 143 149 154 157 152 149 153 157 157 154 157 164 166 165 163 161 163 168 174 182 186 189 192 196 202
184 182 184 190 189 193 183 172 157 145 138 136 141 166 171 181 169 158 152 151 155 167 165 157 162 161 166 166 162 157 163 162 166 171 172 175 181 183 190 193 199 203 209
183 184 194 201 201 195 186 177 169 163 156 155 151 168 171 169 166 163 159 154 158 169 169 168 169 174 173 172 169 169 174 178 181 187 190 190 189 190 193 200 206 210 214
186 191 202 207 205 198 187 180 173 167 157 162 172 172 166 164 167 166 161 166 158 171 180 182 186 182 187 180 181 186 184 186 191 195 196 197 199 200 206 209 213 218 221
193 196 200 206 210 201 196 186 180 177 172 160 166 164 169 174 179 177 173 173 171 166 169 182 189 191 195 202 198 193 195 199 200 200 202 206 208 211 216 222 225 229 240
200 203 207 204 208 208 202 195 192 190 184 174 169 156 139 169 187 190 185 187 188 187 183 181 185 192 198 209 211 210 210 210 210 214 214 216 216 222 228 230 234 239 244
205 205 210 213 209 210 211 207 198 196 193 186 183 178 175 173 182 199 208 207 203 203 207 209 210 209 206 206 210 217 224 226 226 225 226 225 227 232 237 242 244 245 246
210 215 220 221 220 221 221 215 213 205 199 198 203 205 203 201 205 210 209 210 215 221 226 228 227 226 226 227 228 229 229 229 229 230 233 235 236 239 241 242 243 245 248
206 212 217 221 224 223 222 224 224 217 209 205 212 214 213 217 223 233 243 245 243 240 240 240 240 242 244 246 246 245 245 244 244 247 246 246 244 246 248 247 249 251 253
199 206 213 213 215 209 211 208 215 220 223 222 223 228 237 246 254 260 263 265 265 263 258 253 253 252 252 252 254 255 255 253 252 253 254 253 251 250 248 252 253 255 258
200 206 199 191 196 192 183 181 185 181 175 200 224 237 246 256 259 260 263 266 270 274 277 279 281 280 276 274 271 267 266 265 262 258 259 259 258 257 254 255 258 258 261